Showing default

GGSE 1 (GGRS), 728

Orbit data source: Space-Track

GGSE 1 (GGRS), 728 is an American payload satellite in LEO that was launched on Sat, 11 Jan 1964 UTC via a THOR SLV-2A AGENA D launch vehicle from the Air Force Western Test Range (AFWTR). Payload-class satellites include a variety of spacecraft equipped with specific instruments for various scientific and technological missions. These include communications satellites like Starlink; space stations such as the ISS; scientific satellites like the Hubble; Earth observation satellites from companies like Planet Labs, Umbra, and HawkEye 360; GPS; miniature CubeSats for education and research; and military/defense satellites.

Loading next visibility...
Identifier
728, 1964-001B
Orbit
LEO
Country
Flag of USUS
Related business
Manufacturer
NRL
Mission
Defense Technology
Bus & Motor
NRL 20", Unknown motor
Mass
38 kg wet, 38 kg dry
Launch date (UTC)
1964-01-11 (62 years ago)
Launch vehicle
THOR SLV-2A AGENA D
Launch site
Air Force Western Test Range (AFWTR)
Object type
Payload
Rocket body
Debris
Shape & HBR
Sphere + 1 Ant, 4.5 m
Radar Cross Section
0.623 m², Medium (>0.1 m² and < 1m²)

Expand to show TLE details & history
Last TLE update: 14 hours ago

TLE from 14 hours ago
0 GGSE 1 (GGRS)
1 00728U 64001B   25258.80804556  .00000032  00000-0  61009-4 0  9991
2 00728  69.9061  74.4550 0014829 330.5260  29.5008 13.97695821141335
Epoch: 2025-09-15T19:23Z
TLE epoch observation values (Epoch: 2025-09-15T19:23:35.136Z)
Latitude
-0.00004°
Longitude
148.55119°
Altitude
894.7 km
Speed
7.41 km/s
True Right ascension
04h 57m 49s
True Declination
0° 00' 00"
Sunlit
Object was in daylight at epoch
Visualization orbit readout
Latitude
Unknown
Longitude
Unknown
Altitude
Unknown
Speed
Unknown
Apparent Right ascension
Unknown
Apparent Declination
Unknown
Sunlit
N/A
Visualization observer readout
Local Sidereal Time
02:26:19
Azimuth
Unknown
Elevation
Unknown
Doppler factor
Unknown
Orbital elements
Apogee altitude
910.629 km
Perigee altitude
889.044 km
Semi-major axis
7,277.973 km
Eccentricity
0.00148
Inclination
69.9061°
RAAN
74.455°
Arg. of periapsis
330.526°
True anomaly
29.58461°
Mean anomaly
29.5008°
Eccentric anomaly
29.54269°
Mean motion
3.49565 °/min
Orbital period
102.99 mins
BSTAR
0.000061009
Loading maneuver chart data...
Computing Atmospheric mass density...
Loading historical data...
Loading historical data...
Loading historical data...
Loading historical data...
Loading historical data...
Loading historical data...
Loading historical data...
Other satellites on launch #1 in the year 1964 (1964-01-11 UTC)

Documentation

Showing up to 5 results
|